Lapse_Rate
6.0 6.1 5.9 6.0 6.1 6.2 6.1 6.0 5.9 5.8 5.9 5.9 6.2 6.4 6.6 6.7 6.7 6.7 6.6 6.7 6.7 6.5 6.5 6.6 6.7 6.8 7.0 7.1 7.2 7.3 7.4 7.4 7.3 7.2 7.4 7.6 7.7 7.9 7.9 7.8 7.9 7.9 7.9
6.6 6.6 6.4 6.4 6.2 6.4 6.2 6.2 6.1 6.1 6.1 6.0 6.1 6.4 6.6 6.8 6.8 6.8 6.8 6.7 6.8 6.7 6.7 6.6 6.7 6.9 7.0 7.1 7.2 7.4 7.4 7.4 7.4 7.4 7.6 7.9 7.9 7.8 8.0 8.1 8.3 8.1 8.1
6.6 6.7 6.7 6.5 6.5 6.5 6.4 6.3 6.1 6.2 6.3 6.1 6.2 6.4 6.5 6.6 6.8 6.8 6.9 6.8 6.9 6.9 6.9 6.8 6.8 6.9 6.9 7.0 7.2 7.4 7.5 7.5 7.4 7.4 7.3 7.4 7.6 7.8 8.2 8.2 8.4 8.3 7.9
6.4 6.6 6.8 6.8 6.7 6.7 6.9 6.6 6.3 6.4 6.5 6.4 6.4 6.4 6.5 6.5 6.7 6.8 7.0 7.1 6.9 7.0 6.9 6.8 6.8 6.8 6.8 6.8 7.0 7.3 7.4 7.5 7.5 7.5 7.7 7.9 7.9 8.0 7.8 7.5 7.5 7.2 7.1
6.6 6.6 6.8 6.9 6.9 6.9 6.9 6.8 6.5 6.5 6.5 6.6 6.4 6.5 6.5 6.6 6.8 7.0 7.0 7.0 7.0 6.9 7.0 6.8 6.7 6.7 6.7 6.8 7.0 7.1 7.4 7.6 7.6 7.7 7.7 7.7 7.6 7.7 7.7 7.5 7.5 7.4 7.1
7.0 6.8 6.9 7.0 6.8 6.8 6.8 6.8 6.7 6.5 6.5 6.6 6.6 6.6 6.7 6.8 7.0 7.0 6.9 6.9 6.8 6.8 6.9 6.7 6.6 6.6 6.7 6.9 7.0 7.1 7.3 7.6 7.6 7.6 7.7 7.8 7.9 7.6 7.6 7.4 7.3 7.4 7.5
7.2 6.9 6.7 6.8 6.9 6.9 6.8 6.7 6.8 6.7 6.6 6.7 6.7 6.7 6.9 7.0 6.9 6.8 6.7 6.6 6.6 6.7 6.6 6.5 6.5 6.5 6.6 6.8 7.0 7.2 7.5 7.5 7.7 7.9 8.1 7.8 7.8 7.5 7.7 7.8 7.8 7.7 7.5
7.3 7.2 7.0 6.8 6.6 6.6 6.7 6.8 6.8 6.7 6.6 6.7 6.8 6.8 6.9 7.0 6.9 6.8 6.7 6.5 6.5 6.6 6.6 6.5 6.3 6.4 6.5 6.8 7.0 7.4 7.7 7.8 7.7 8.0 8.2 8.1 7.8 7.7 7.7 7.7 7.8 7.8 7.8
7.8 7.4 7.2 7.1 6.8 6.6 6.6 6.8 6.8 6.6 6.5 6.7 6.9 6.9 6.9 7.2 7.1 6.9 6.7 6.7 6.8 6.7 6.6 6.6 6.6 6.5 6.7 6.7 6.9 7.5 7.8 8.1 7.9 8.0 8.1 8.0 7.9 7.6 7.3 7.4 7.5 7.7 7.8
8.3 8.0 7.5 7.1 6.9 6.8 6.8 6.9 6.9 6.7 6.6 6.6 6.8 6.9 7.0 7.2 7.1 7.0 6.8 6.9 6.9 6.9 6.8 6.8 6.8 6.9 6.8 6.9 7.2 7.7 8.3 8.3 8.1 8.1 8.0 8.1 8.1 8.0 7.9 7.9 7.8 7.8 7.8
8.7 8.3 7.7 7.3 7.0 6.9 6.8 6.6 6.6 6.8 6.6 6.6 6.7 6.9 7.0 7.2 7.3 7.3 7.1 7.1 7.2 7.1 7.1 7.1 7.2 7.2 7.2 7.4 7.6 8.0 8.4 8.3 8.3 8.3 8.3 8.2 8.2 7.9 7.8 8.0 7.9 7.7 7.6
8.7 8.4 8.1 7.5 7.3 7.0 6.8 6.7 6.5 6.4 6.4 6.6 6.6 6.9 7.1 7.3 7.5 7.5 7.4 7.4 7.3 7.3 7.4 7.4 7.5 7.8 7.9 7.8 7.8 8.1 8.3 8.3 8.5 8.5 8.3 8.3 8.2 8.0 7.9 7.9 7.7 7.6 7.5
8.7 8.6 8.5 8.2 7.5 7.1 6.9 6.8 6.6 6.8 6.8 6.9 7.1 7.1 7.3 7.4 7.6 7.7 7.7 7.7 7.7 7.6 7.7 7.7 7.9 8.0 8.3 8.2 8.0 8.1 8.3 8.5 8.5 8.5 8.5 8.5 8.3 8.1 8.1 8.0 7.7 7.5 7.4
9.1 8.7 8.4 8.4 7.7 7.3 7.0 6.7 6.7 6.7 6.9 7.2 7.4 7.7 7.6 7.7 7.9 7.9 7.7 7.5 7.5 7.7 7.8 7.8 7.9 8.0 8.4 8.6 8.6 8.4 8.4 8.5 8.5 8.6 8.6 8.5 8.3 8.0 8.1 7.9 7.6 7.3 7.5
8.8 8.9 8.5 8.4 8.1 7.7 7.3 6.9 6.9 6.8 6.9 7.2 7.6 7.7 7.6 7.7 7.6 7.6 7.5 7.6 7.6 7.9 7.7 7.8 8.1 8.2 8.3 8.4 8.5 8.5 8.6 8.6 8.6 8.6 8.5 8.5 8.6 8.4 8.2 7.7 7.5 7.1 7.3
8.7 8.7 8.5 8.5 8.3 7.8 7.3 7.0 7.0 7.0 7.3 7.2 7.3 7.4 6.9 7.5 7.5 7.7 7.6 7.9 8.4 8.3 8.1 8.3 8.3 8.3 8.4 8.4 8.5 8.4 8.5 8.7 8.7 8.8 8.8 8.8 8.6 8.3 8.0 7.9 7.5 7.2 6.9
7.9 7.7 7.6 8.0 8.0 7.8 7.4 7.3 7.4 7.3 7.3 7.3 7.4 7.4 7.5 7.5 7.6 7.6 7.8 7.9 8.1 8.2 8.3 8.3 8.3 8.3 8.4 8.3 8.3 8.4 8.5 8.6 8.6 8.7 8.7 8.6 8.4 8.1 7.9 7.6 7.3 7.2 6.8
7.2 7.5 6.8 6.8 6.9 7.9 7.7 7.7 7.8 7.7 7.7 7.7 7.5 7.5 7.5 7.3 7.4 7.7 7.6 7.4 8.0 8.2 8.3 8.3 8.3 8.3 8.2 8.1 8.1 8.1 8.3 8.5 8.6 8.6 8.4 8.2 8.1 7.9 7.7 7.3 7.1 7.0 6.8
6.5 6.5 6.4 6.9 7.6 7.6 7.4 7.8 8.0 8.0 8.3 8.3 8.4 8.1 8.0 8.0 7.7 7.5 7.9 8.2 8.3 8.2 8.2 8.2 8.2 8.2 8.3 8.2 8.2 8.1 8.2 8.3 8.1 8.1 7.9 7.8 7.9 7.8 7.5 7.3 7.1 6.9 6.8
6.0 6.0 6.2 6.8 7.0 7.4 8.0 8.0 7.8 7.8 8.1 8.1 8.0 8.6 8.4 8.4 8.1 7.8 7.9 8.1 8.1 8.1 8.1 8.2 8.2 8.2 8.3 8.2 8.3 7.9 7.9 7.8 7.7 7.6 7.5 7.5 7.6 7.5 7.3 7.1 7.2 6.9 6.6
6.2 6.3 6.5 6.9 6.4 6.1 7.8 7.4 7.0 6.9 7.6 7.5 7.9 8.0 8.2 8.0 8.2 8.4 7.9 7.7 7.8 7.9 8.0 7.8 7.6 7.5 7.4 7.4 7.6 7.9 7.7 7.5 7.5 7.4 7.3 7.3 7.3 7.4 7.3 6.2 6.6 6.9 6.6
5.5 5.6 5.1 6.1 6.1 6.2 6.5 6.3 6.6 6.5 6.8 7.3 7.2 8.2 7.6 8.3 7.8 7.6 7.9 7.6 7.7 8.0 8.0 7.8 7.6 7.6 7.5 7.4 7.5 7.7 7.6 7.5 7.4 7.4 7.3 7.3 7.2 7.2 7.0 6.7 6.6 6.5 7.0
5.7 5.9 5.8 5.8 6.4 6.4 5.8 5.8 6.9 6.2 6.4 6.3 6.3 6.6 8.4 7.8 7.7 7.8 7.9 7.8 7.8 7.8 7.7 7.9 7.7 7.7 7.7 7.7 7.6 7.6 7.5 7.3 7.4 7.5 7.3 7.1 6.8 6.8 6.6 6.4 6.5 6.2 6.4
5.1 5.7 6.1 6.0 6.3 6.6 6.8 6.7 6.5 6.4 6.4 6.1 6.1 6.3 6.3 6.0 6.7 8.0 8.2 8.0 8.0 7.9 7.7 7.7 7.9 7.8 7.8 7.7 7.7 7.6 7.6 7.8 7.6 7.2 7.0 6.9 6.7 6.6 6.1 6.2 6.7 6.4 5.9
5.5 5.4 6.0 6.1 6.0 6.6 6.7 6.7 7.0 7.1 7.4 7.6 7.5 7.3 7.5 7.8 7.9 8.1 8.2 8.0 7.9 8.0 8.0 8.0 8.0 8.0 7.8 7.9 7.8 7.4 7.4 7.5 7.4 6.8 6.4 6.5 6.5 6.3 6.0 6.0 6.2 6.3 6.1
5.9 5.8 6.1 6.3 6.0 6.1 6.8 6.9 7.0 7.0 7.1 7.1 7.1 7.2 7.3 7.6 7.8 7.9 8.1 8.2 8.1 7.9 7.8 7.9 7.8 7.7 7.7 7.8 7.6 7.5 7.4 7.1 7.2 6.5 6.1 5.8 6.0 6.1 5.8 5.9 5.8 5.8 5.7
Wind_Speed
21 20 19 18 19 17 14 13 12 10 9 10 9 10 10 10 10 9 9 7 10 9 8 7 7 7 8 7 6 6 7 7 8 8 8 8 6 6 9 13 14 14 19
21 20 21 19 19 18 17 16 14 13 12 11 11 11 11 11 10 11 12 10 10 9 10 9 10 9 10 8 8 8 8 7 8 9 9 9 10 9 8 8 10 17 16
22 23 21 20 19 19 18 17 16 15 14 14 13 13 12 12 11 12 12 12 11 11 11 11 11 10 9 10 8 8 9 8 9 10 10 8 8 9 9 9 8 10 16
23 23 22 21 20 19 18 18 17 16 15 15 14 13 13 13 13 13 13 12 12 12 11 11 11 11 10 10 9 9 10 10 10 10 10 10 9 8 8 8 8 9 10
20 21 21 21 20 19 19 18 17 16 15 15 15 14 14 14 13 14 13 13 12 12 11 11 12 12 11 8 9 10 9 10 10 10 9 9 9 9 10 10 10 10 10
20 21 19 20 19 20 19 18 17 17 16 16 15 15 15 14 16 15 15 13 12 12 12 12 12 10 10 12 12 13 12 10 10 11 11 12 10 11 10 10 11 11 11
17 18 18 18 19 19 19 18 18 18 16 16 16 16 16 16 12 15 17 13 12 12 12 11 12 12 13 14 15 17 16 15 16 13 14 13 13 11 10 10 11 9 10
19 18 19 19 19 19 18 18 18 16 17 16 16 16 15 14 12 13 14 14 14 14 13 12 13 14 13 11 11 12 13 13 12 11 14 13 12 10 9 10 10 10 10
19 21 20 20 19 19 20 19 17 15 15 16 15 16 16 15 15 16 14 15 14 15 14 14 15 15 14 13 14 16 15 14 16 19 22 23 22 19 15 8 8 8 9
22 21 18 19 19 19 19 18 17 15 16 15 16 16 16 16 14 16 16 13 14 13 14 16 15 17 13 12 13 14 15 13 12 12 11 8 13 10 18 9 7 7 6
18 18 17 18 18 18 16 15 15 16 15 14 14 14 15 16 15 17 19 14 13 12 13 12 12 20 22 20 15 14 14 9 11 10 10 10 6 8 5 7 8 5 4
15 17 18 17 16 15 16 15 14 13 13 13 13 12 13 13 14 14 19 21 15 14 14 12 12 12 19 21 16 15 12 11 12 12 11 10 8 8 8 5 2 2 1
14 15 16 16 16 14 16 15 13 14 14 14 13 14 13 13 13 18 20 21 21 13 13 8 7 2 7 5 9 8 11 9 10 11 10 8 8 9 5 6 4 6 4
13 14 14 15 15 15 14 14 14 14 14 13 13 13 13 12 12 12 13 12 17 13 15 14 13 9 7 8 4 9 9 10 11 10 8 9 9 4 6 6 4 5 3
11 14 14 14 15 15 14 14 14 14 11 14 12 12 12 12 12 13 10 11 12 14 12 11 12 12 12 12 11 11 9 7 9 10 9 8 8 4 5 5 4 4 6
7 8 12 13 14 14 14 8 8 10 11 8 7 4 1 13 11 7 12 13 9 12 11 11 12 12 12 11 8 8 11 10 10 9 8 7 6 6 6 6 6 8 8
11 7 9 12 14 14 13 13 12 3 2 6 8 6 5 3 11 10 8 11 8 10 8 10 11 11 8 7 9 8 10 9 10 8 7 7 6 7 7 8 7 7 8
11 12 9 6 8 13 13 13 11 13 11 10 9 11 6 10 6 3 2 2 6 5 10 12 12 7 6 10 11 11 12 9 7 8 10 8 7 7 6 7 8 9 9
7 8 10 8 7 5 4 8 8 6 10 10 7 5 10 12 9 9 6 7 12 13 11 12 12 11 11 12 12 10 10 7 6 7 9 8 7 8 8 7 8 9 9
9 10 8 7 6 4 3 6 5 7 7 8 6 2 9 7 5 7 7 9 12 14 13 13 11 11 11 10 8 8 6 5 6 8 7 7 6 6 6 8 10 9 10
4 5 11 5 5 5 0 5 7 5 4 2 3 6 9 3 6 5 10 10 11 12 13 12 10 10 4 4 7 8 5 9 9 9 9 7 8 7 9 9 11 9 10
3 3 3 3 5 6 5 5 4 4 3 4 4 4 8 4 5 8 10 10 9 10 9 9 10 10 5 5 6 7 8 10 9 9 9 8 8 9 9 8 9 11 11
9 9 7 4 3 6 5 11 5 6 7 7 10 11 7 6 8 10 9 9 8 7 8 4 5 8 8 7 6 6 7 8 6 7 8 8 8 8 7 7 11 11 9
11 11 10 8 7 8 6 10 7 4 6 6 6 7 7 7 4 5 6 6 8 9 7 4 6 8 8 6 6 6 6 4 7 9 12 10 10 10 9 8 10 12 7
10 8 7 8 9 9 9 10 11 12 12 12 12 11 11 10 9 9 9 9 8 9 11 11 11 16 16 17 16 14 16 13 8 10 5 10 10 10 12 8 8 7 9
12 12 11 10 10 10 10 10 10 10 10 9 9 9 9 9 9 9 10 10 9 10 12 10 13 18 20 16 20 22 17 15 10 10 6 7 7 9 8 7 10 8 11
Wind_Direction
198 197 198 194 197 202 214 200 212 223 224 208 223 206 216 214 209 207 239 250 192 210 256 266 210 245 273 276 247 240 255 259 267 275 287 305 306 266 265 264 273 279 285
201 199 198 197 197 200 204 211 200 208 208 220 212 214 214 216 211 208 219 226 222 227 223 235 242 236 217 247 273 282 283 294 288 288 291 289 271 271 270 260 262 280 278
201 200 199 202 201 201 198 204 202 200 204 211 213 216 211 214 215 212 219 226 232 216 224 226 232 236 242 261 265 270 257 237 238 251 272 286 295 294 278 260 253 264 272
198 206 202 200 202 202 199 199 204 201 200 207 210 213 213 213 214 220 216 224 228 228 229 236 238 238 239 239 243 251 258 267 275 273 270 269 273 274 267 275 298 317 300
199 201 202 200 201 201 201 201 200 204 202 206 208 211 213 215 217 214 223 219 219 229 239 234 234 244 253 253 256 248 253 249 259 267 276 291 296 311 327 313 296 309 315
197 201 200 196 197 201 202 201 201 200 203 203 210 211 214 220 212 200 207 221 226 225 229 233 242 249 240 235 235 248 260 273 277 279 283 285 294 293 310 309 311 302 309
206 198 198 195 198 201 199 198 199 200 200 207 209 213 216 221 211 197 199 220 226 224 229 233 238 244 225 237 225 231 241 238 236 255 268 271 284 290 301 294 291 309 301
204 198 197 195 199 198 200 202 198 198 203 205 211 212 216 221 205 195 195 218 229 240 242 234 233 245 254 259 254 249 242 240 231 232 240 251 256 252 251 287 303 298 288
209 206 197 197 196 199 201 199 199 202 206 210 212 213 215 222 199 193 185 221 230 236 239 239 243 249 248 223 240 253 261 264 269 261 256 259 260 264 266 284 280 273 288
208 205 198 199 198 202 202 200 198 201 209 214 215 214 215 221 200 199 194 224 229 232 231 235 231 242 243 222 235 249 256 258 263 272 273 252 250 248 244 225 241 260 293
200 201 200 199 201 203 202 203 201 201 209 213 220 216 219 217 220 191 194 217 232 230 238 242 235 211 222 228 214 242 250 263 268 274 269 262 265 274 248 189 218 265 282
194 196 198 197 201 196 200 199 202 201 207 210 214 222 220 222 216 190 195 211 224 236 245 246 241 222 207 216 217 231 236 253 262 263 265 269 272 264 268 260 145 202 93
190 195 197 196 197 203 192 196 197 200 211 213 212 220 228 219 220 203 195 203 222 236 242 244 68 128 183 222 231 230 215 233 244 250 254 259 254 261 139 126 153 123 98
193 200 197 195 198 207 189 195 203 203 207 218 215 221 224 226 228 215 205 207 223 219 240 255 267 293 287 274 236 211 222 237 241 244 245 247 251 194 194 162 168 183 182
205 206 199 198 195 198 206 198 203 212 207 207 219 214 224 226 228 222 208 194 212 214 222 231 235 237 243 244 242 244 242 235 228 242 247 235 245 220 189 175 166 194 204
224 211 199 204 188 202 202 175 62 126 126 100 69 14 271 25 50 80 110 110 98 170 196 228 230 233 238 238 242 248 254 241 243 240 249 249 229 216 191 193 194 226 232
352 344 208 218 182 203 193 196 186 161 121 134 136 142 112 63 47 19 60 98 109 139 224 227 234 241 226 231 241 229 234 241 255 251 242 232 210 206 187 198 204 217 224
354 335 345 225 190 197 196 190 194 172 180 189 218 217 185 127 125 108 111 267 243 231 244 240 246 237 230 235 250 237 231 229 200 224 233 226 210 202 188 208 206 217 219
353 355 342 354 8 343 106 169 168 178 197 178 165 212 172 112 114 117 146 249 258 255 233 228 239 243 229 229 234 243 256 244 223 222 225 219 202 202 203 211 221 223 218
349 313 313 315 329 320 184 215 235 230 200 206 221 182 152 139 174 201 208 230 237 248 252 253 249 239 234 234 257 287 262 221 218 234 228 209 196 202 203 215 226 219 219
257 262 240 264 257 261 116 305 267 236 203 141 325 103 85 194 198 217 213 211 229 244 252 252 258 260 272 212 220 227 217 237 241 233 225 201 197 208 225 226 218 209 218
313 327 293 347 341 287 31 289 307 287 227 202 253 104 145 292 296 291 283 280 218 218 243 251 251 255 248 197 200 224 219 234 241 237 226 214 205 219 230 233 227 205 214
12 8 344 322 308 19 259 257 247 243 247 233 201 192 187 218 230 240 257 268 282 267 274 247 263 267 247 244 230 222 230 219 216 208 219 217 221 225 233 232 236 239 226
25 11 356 343 14 331 340 320 311 291 270 273 321 310 359 1 7 45 9 351 329 325 307 324 295 287 265 261 253 236 243 260 236 227 225 231 235 228 250 244 224 236 215
54 43 25 17 29 6 3 17 18 10 19 26 18 12 7 9 14 12 7 7 10 15 35 26 20 13 25 30 19 3 355 350 351 330 282 243 242 249 256 250 218 221 237
43 46 44 41 33 27 33 35 33 27 27 26 28 25 20 19 17 16 19 19 19 27 23 22 20 15 9 14 8 359 349 345 346 349 323 256 234 241 238 232 227 225 227